Total_Precipitation_Accumulation
0.21 0.49 0.91 1.46 2.25 2.74 2.77 2.14 1.57 1.33 1.11 1.00 0.82 0.74 0.86 1.23 1.73 2.80 2.95 2.54 1.91 1.93 2.12 2.08 2.13 1.92 1.86 1.87 1.83 1.83 1.87 1.95 1.88 2.02 2.42 2.63 2.83 3.17 3.39 3.66 3.94 4.23 4.15 3.60 3.19 2.78 2.59 2.56 2.44
0.38 0.67 1.15 1.81 2.56 3.09 2.84 1.91 1.43 1.19 0.89 0.79 0.74 0.72 0.87 1.10 1.25 1.79 2.33 2.09 1.59 1.60 1.65 1.62 1.85 1.87 1.85 1.78 1.61 1.60 1.70 1.80 1.91 2.07 2.37 2.68 2.93 3.26 3.38 3.55 3.75 3.87 3.61 3.26 2.76 2.39 2.33 2.24 2.08
0.62 0.91 1.27 1.81 2.12 2.59 2.31 1.66 1.15 0.90 0.76 0.79 0.96 0.86 1.11 1.53 1.60 1.95 1.94 1.56 1.40 1.42 1.43 1.68 1.78 1.76 1.79 1.60 1.54 1.59 1.69 1.76 1.91 2.05 2.35 2.68 3.03 3.21 3.30 3.29 3.46 3.32 3.09 2.88 2.61 2.36 2.19 2.00 1.86
0.71 1.08 1.32 1.53 1.54 1.41 1.45 1.42 1.00 0.97 0.94 0.80 0.93 1.25 1.44 1.61 1.64 1.87 1.76 1.43 1.17 1.27 1.40 1.66 1.74 1.73 1.86 1.67 1.53 1.65 1.73 1.85 1.96 2.22 2.45 2.51 2.84 2.98 3.03 3.10 3.29 3.14 2.95 2.74 2.48 2.20 2.05 1.83 1.67
0.66 1.09 1.39 1.37 1.34 1.15 1.06 1.04 0.84 0.90 0.94 0.88 0.95 1.49 1.94 1.95 1.57 1.53 1.50 1.38 1.14 1.38 1.60 1.70 1.82 1.80 1.92 1.86 1.58 1.69 1.91 2.04 2.03 2.24 2.36 2.33 2.56 2.70 2.80 2.99 3.11 2.97 2.74 2.48 2.28 2.10 2.00 1.80 1.73
0.74 1.15 1.38 1.23 1.19 0.93 0.86 0.84 0.76 0.81 0.88 0.95 1.14 1.62 2.24 2.19 1.80 1.66 1.59 1.50 1.29 1.35 1.56 1.76 2.07 2.04 2.10 2.04 1.78 1.81 1.98 2.05 2.12 2.21 2.12 2.17 2.41 2.56 2.72 2.90 3.04 2.81 2.43 2.26 2.18 2.03 1.95 1.85 1.79
0.75 0.89 1.06 0.91 0.96 0.92 0.79 0.66 0.71 0.94 1.21 1.22 1.30 1.75 2.19 2.59 2.29 1.95 1.86 1.76 1.52 1.45 1.50 1.64 1.88 1.97 2.12 2.19 2.08 2.05 2.18 2.18 2.14 2.17 2.16 2.23 2.39 2.60 2.77 2.90 3.11 2.73 2.29 2.15 2.05 2.00 1.89 1.77 1.73
0.57 0.58 0.64 0.76 0.82 0.89 0.69 0.60 0.62 0.83 1.24 1.15 1.19 1.57 2.17 2.20 2.16 2.31 2.26 2.27 1.99 1.80 1.64 1.62 1.81 1.99 1.99 2.08 2.19 2.28 2.29 2.40 2.50 2.50 2.51 2.60 2.68 2.65 2.85 2.89 2.96 2.66 2.33 2.22 2.15 2.18 2.10 1.97 1.83
0.34 0.45 0.45 0.59 0.65 0.66 0.51 0.51 0.55 0.69 0.87 1.03 1.25 1.33 1.62 1.56 1.78 2.23 2.53 2.81 2.72 2.16 1.97 1.80 1.69 1.81 1.89 2.00 2.30 2.69 2.72 2.67 2.74 2.87 2.87 2.88 3.10 3.11 3.29 3.07 3.01 2.75 2.57 2.59 2.50 2.52 2.58 2.34 2.10
0.25 0.35 0.29 0.30 0.34 0.36 0.36 0.41 0.44 0.74 1.18 1.57 1.73 1.61 1.58 1.64 2.03 2.36 2.45 2.57 2.75 2.35 2.02 1.96 1.87 1.80 1.77 1.77 2.24 2.85 2.69 2.58 2.66 2.85 2.78 3.00 3.54 3.87 3.49 3.61 3.59 3.39 3.30 3.22 3.20 3.18 2.88 2.47 2.40
0.13 0.16 0.19 0.22 0.24 0.25 0.29 0.35 0.41 0.69 1.28 1.66 1.81 1.82 1.84 1.84 2.25 2.62 2.77 2.61 2.63 2.48 2.13 2.05 1.99 2.03 2.08 2.21 2.23 2.53 2.74 2.85 2.90 2.93 2.97 3.31 3.55 3.83 3.94 3.99 4.11 4.16 3.86 3.54 3.70 3.53 2.82 2.87 3.27
0.08 0.09 0.13 0.17 0.21 0.25 0.26 0.30 0.50 0.69 1.08 1.40 1.46 1.85 2.08 2.05 2.43 2.68 2.84 2.98 2.83 2.69 2.37 2.15 2.05 2.14 2.32 2.29 2.33 2.41 2.64 2.81 2.99 3.17 3.12 3.52 4.12 4.25 4.35 4.33 4.22 4.42 4.24 4.25 4.12 4.11 3.58 3.58 3.31
0.08 0.09 0.10 0.13 0.18 0.22 0.26 0.31 0.38 0.71 0.89 1.13 1.36 1.75 1.99 2.05 2.44 2.78 3.06 3.17 3.12 2.83 2.55 2.47 2.20 2.20 2.31 2.56 2.75 2.53 2.98 3.11 3.21 3.49 3.64 3.81 4.20 4.29 4.42 4.45 4.49 4.05 4.04 4.22 4.53 4.27 4.43 4.38 3.90
0.06 0.08 0.10 0.12 0.16 0.21 0.35 0.46 0.47 0.87 0.92 1.07 1.34 1.78 1.89 1.94 2.20 2.24 2.62 2.98 3.08 2.81 2.67 2.64 2.45 2.51 2.63 2.77 2.97 3.08 3.35 3.65 3.62 3.75 3.88 4.01 4.25 4.59 4.67 4.65 4.59 4.10 3.94 4.22 4.51 4.40 4.92 4.81 4.57
0.07 0.13 0.18 0.20 0.23 0.30 0.41 0.70 0.75 0.98 1.05 1.27 1.33 1.53 1.71 1.75 1.93 2.15 2.43 2.77 2.85 2.62 2.73 2.91 2.96 3.22 3.34 3.37 3.39 3.39 3.60 3.76 3.99 4.40 4.52 4.65 4.63 4.83 4.63 4.61 4.43 4.26 4.16 4.31 4.44 4.56 4.95 4.62 4.52
0.12 0.23 0.36 0.37 0.33 0.37 0.61 1.23 1.10 1.16 1.14 1.21 1.21 1.38 1.49 1.60 1.84 2.14 2.30 2.60 2.79 2.68 2.76 2.99 3.09 3.50 3.70 3.81 3.96 3.90 3.95 4.05 4.41 4.69 4.98 4.97 4.83 4.70 4.85 4.58 4.31 4.37 4.29 4.53 4.91 4.94 5.00 5.07 4.95
0.20 0.29 0.40 0.45 0.32 0.33 0.56 1.01 0.95 1.03 1.25 1.16 1.15 1.25 1.29 1.40 1.57 1.79 2.06 2.41 2.74 3.00 3.27 3.63 3.76 3.69 3.79 4.02 4.25 4.06 4.17 4.25 4.29 4.46 4.85 4.78 4.44 4.33 4.89 4.81 4.75 4.61 4.82 4.80 4.46 5.14 5.30 5.24 5.14
0.20 0.25 0.35 0.42 0.37 0.33 0.48 0.70 0.85 0.96 1.08 1.19 1.19 1.28 1.37 1.54 1.78 2.00 2.35 2.59 2.86 3.38 3.77 4.02 4.06 4.30 4.60 4.82 4.77 4.58 4.36 4.29 4.18 4.28 4.53 4.46 4.42 4.32 4.77 4.71 4.71 4.84 5.28 5.40 5.23 5.52 5.36 5.12 5.15
0.18 0.26 0.32 0.34 0.39 0.44 0.54 0.61 0.89 1.13 1.25 1.41 1.57 1.79 1.97 2.17 2.24 2.45 2.87 3.14 3.33 3.48 3.72 3.99 4.39 4.79 4.94 4.77 4.73 4.77 4.69 4.55 4.23 4.10 4.25 4.32 4.08 4.12 4.61 4.47 5.02 4.97 5.14 5.27 5.15 5.35 5.18 4.93 5.01
0.17 0.25 0.34 0.39 0.41 0.45 0.63 0.74 0.94 1.39 1.56 1.53 1.57 1.56 1.61 2.05 2.28 2.54 2.89 3.08 3.04 3.22 3.50 3.88 4.35 4.71 4.64 4.79 5.05 5.09 5.01 4.51 4.27 4.19 4.26 4.11 3.85 3.77 3.95 4.62 4.68 4.78 5.01 5.04 5.00 5.05 4.76 4.45 4.84
0.17 0.21 0.29 0.37 0.51 0.50 0.65 1.11 1.24 1.51 1.65 1.51 1.45 1.46 1.42 1.62 1.95 2.13 2.35 2.57 2.77 3.18 3.61 3.96 4.29 4.44 4.49 4.75 4.92 4.69 4.59 4.22 4.21 4.27 4.19 3.96 3.80 3.74 3.93 4.29 4.41 4.56 4.49 4.73 4.95 4.76 4.69 4.59 4.66
0.19 0.18 0.20 0.30 0.51 0.67 0.75 1.46 1.70 1.86 1.76 1.44 1.45 1.50 1.60 1.72 1.81 1.95 2.03 2.36 2.74 3.16 3.75 4.18 4.21 4.29 4.19 4.38 4.56 4.43 4.15 3.99 3.95 3.98 3.76 3.66 3.54 3.47 3.63 3.88 4.13 4.31 4.25 4.48 4.30 4.42 4.61 4.71 4.55
0.15 0.15 0.18 0.28 0.42 0.66 0.80 1.25 1.73 1.81 1.75 1.38 1.28 1.47 1.70 1.68 1.74 1.97 1.94 2.16 2.45 2.87 3.29 3.72 4.08 4.17 4.02 4.01 4.14 4.33 4.17 3.93 3.76 3.65 3.59 3.53 3.52 3.34 3.36 3.58 3.82 3.94 3.86 3.91 4.14 4.53 4.46 4.42 4.36
0.13 0.17 0.27 0.40 0.63 1.06 0.83 0.95 1.42 1.69 1.58 1.29 1.28 1.40 1.57 1.74 1.74 1.89 2.17 2.25 2.40 2.68 3.07 3.35 3.57 3.58 3.57 3.57 3.66 3.81 3.90 3.89 3.69 3.50 3.52 3.48 3.38 3.28 3.25 3.36 3.71 3.78 3.69 3.66 3.84 4.00 4.05 4.11 4.27
0.15 0.30 0.76 1.19 1.46 1.25 0.85 0.93 1.33 1.31 1.10 1.02 1.10 1.35 1.60 1.87 1.87 1.90 2.10 2.24 2.33 2.44 2.65 2.84 2.93 3.00 3.00 3.05 3.05 3.07 3.23 3.33 3.24 3.18 3.28 3.31 3.24 3.17 3.21 3.20 3.35 3.29 3.29 3.40 3.70 3.74 3.68 3.73 3.88
0.19 0.33 0.80 1.10 1.21 1.12 1.03 1.24 1.33 1.08 0.94 0.95 1.03 1.22 1.51 1.67 1.70 1.79 1.88 1.84 1.86 1.91 2.06 2.22 2.32 2.37 2.35 2.44 2.58 2.62 2.84 2.91 2.95 3.10 2.98 3.06 3.04 3.05 3.01 2.90 2.86 2.82 2.92 3.03 3.47 3.53 3.46 3.58 3.59
0.27 0.36 0.39 0.62 0.76 1.16 1.37 1.47 1.36 1.04 1.18 1.15 1.25 1.30 1.30 1.34 1.38 1.39 1.43 1.50 1.62 1.66 1.73 1.85 1.95 2.00 1.95 2.04 2.22 2.28 2.36 2.54 2.70 2.82 2.70 2.57 2.66 2.59 2.77 2.70 2.56 2.53 2.70 2.89 3.08 3.13 3.14 3.32 3.29
0.28 0.42 0.55 0.82 1.13 1.34 1.49 1.75 1.93 1.70 1.64 1.53 1.65 1.78 1.47 1.19 1.20 1.24 1.22 1.28 1.32 1.37 1.52 1.68 1.77 1.96 2.01 2.04 2.14 2.04 2.15 2.28 2.46 2.52 2.37 2.38 2.54 2.56 2.57 2.57 2.47 2.43 2.45 2.55 2.82 2.82 2.93 2.99 3.03
0.38 0.48 0.58 0.75 0.89 1.22 1.64 1.86 1.59 1.79 1.83 1.74 1.60 1.59 1.43 1.08 0.99 1.08 1.02 1.05 1.14 1.22 1.36 1.53 1.79 2.01 2.01 1.89 1.99 2.05 2.04 2.19 2.27 2.26 2.17 2.29 2.43 2.63 2.61 2.60 2.60 2.48 2.39 2.49 2.62 2.47 2.69 2.71 2.76
0.34 0.50 0.60 0.81 0.92 1.03 1.33 1.62 1.21 1.41 1.40 1.27 1.30 1.14 1.06 0.99 0.81 0.91 0.96 0.92 0.99 1.05 1.18 1.38 1.60 1.80 1.85 1.80 1.84 2.01 2.14 2.17 2.14 2.09 2.10 2.13 2.16 2.25 2.27 2.25 2.26 2.30 2.47 2.61 2.53 2.48 2.52 2.57 2.49